Temperature
17 17 17 17 17 17 17 17 17 17 17 17 17 17 18 18 18 18 18 18 18 18 18 18 18 18 18 18 18 18 18 18 18 18 18 18 18 18 18 18 18 18 18
18 17 17 17 17 17 17 17 17 17 17 17 17 17 17 17 17 18 18 18 18 18 18 18 18 18 18 18 18 18 18 18 18 18 18 18 18 18 18 18 18 18 18
18 17 17 17 17 17 17 17 17 17 17 17 17 17 17 17 17 17 17 17 18 18 18 18 18 18 18 18 18 18 18 18 18 18 18 18 18 18 18 18 18 18 18
18 17 17 17 17 17 17 17 17 17 17 17 17 17 17 17 17 17 17 17 17 17 17 17 17 18 18 18 18 18 18 18 18 18 17 17 18 18 18 18 18 18 18
18 18 18 17 17 17 17 17 17 17 17 17 17 17 17 17 17 17 17 17 17 17 17 17 17 17 18 18 18 18 18 18 18 17 17 17 17 18 18 18 18 18 17
18 18 18 17 17 17 17 17 17 17 17 17 17 17 17 17 17 17 17 17 17 17 17 17 17 17 17 17 18 18 17 17 17 17 17 17 17 17 18 18 18 17 17
18 18 18 18 17 17 17 17 17 17 17 17 17 17 17 17 17 17 17 17 17 17 17 17 17 17 17 17 17 17 17 17 17 17 17 17 17 17 17 17 17 17 17
18 18 18 18 17 17 17 17 17 17 17 17 17 17 17 17 17 17 17 17 17 17 17 17 17 17 17 17 17 17 17 17 17 17 17 17 17 17 17 17 17 17 17
18 18 18 18 17 17 17 17 17 17 17 17 17 17 17 17 17 17 17 17 17 17 17 17 17 17 17 17 17 17 17 17 17 17 17 17 17 17 17 17 17 17 17
18 18 18 18 17 17 17 17 17 17 17 17 17 17 17 17 17 17 17 17 17 17 17 17 17 17 17 17 17 17 17 16 16 16 16 16 16 16 16 16 16 16 16
18 18 18 18 18 17 17 17 17 17 17 17 16 16 17 17 17 17 17 17 17 17 16 16 16 16 16 16 16 16 16 16 16 16 16 16 16 16 16 16 16 16 16
19 18 18 18 18 17 17 17 17 16 16 16 16 16 16 16 16 16 16 16 16 16 16 16 16 16 16 16 16 16 16 16 16 16 16 16 16 16 16 16 16 16 16
19 18 18 18 18 18 17 17 17 17 16 16 16 16 16 16 16 16 16 16 16 16 16 16 16 16 16 16 16 16 16 16 16 16 16 16 16 16 16 16 16 16 15
19 18 18 18 18 18 17 17 17 17 16 16 16 16 16 16 16 16 16 16 16 16 16 16 16 16 16 16 16 16 16 16 16 16 16 16 16 16 16 16 16 15 15
19 19 18 18 18 18 17 17 17 16 16 16 16 16 16 16 16 16 16 16 16 16 16 16 16 16 16 16 16 16 16 15 15 15 15 15 15 15 15 15 15 15 15
19 19 18 18 18 18 17 17 17 16 16 16 16 16 16 16 16 16 16 16 16 16 16 15 16 16 16 15 15 15 15 15 15 15 15 15 15 15 15 15 15 15 15
19 19 18 18 18 17 17 17 16 16 16 16 16 16 16 16 16 16 16 16 16 15 15 15 15 15 15 15 15 15 15 15 15 15 15 15 15 15 15 15 15 15 15
19 19 18 18 18 17 17 17 16 16 16 16 16 16 16 16 16 16 15 15 15 15 15 15 15 15 15 15 15 15 15 15 15 15 15 15 15 15 15 15 15 15 15
19 19 18 18 18 17 17 17 16 16 16 16 16 16 16 16 16 15 15 15 15 15 15 15 15 15 15 15 15 15 15 15 15 15 15 15 14 14 14 14 14 14 14
19 19 18 18 17 17 17 17 16 16 16 16 16 16 16 16 15 15 15 15 15 15 15 15 15 15 15 15 15 15 15 15 15 15 14 14 14 14 14 14 14 14 14
19 19 18 18 18 17 17 16 16 16 16 16 16 15 15 15 15 15 15 15 15 15 14 14 14 14 14 14 15 15 15 14 14 14 14 14 14 14 14 14 14 14 14
19 19 18 18 18 17 17 16 16 16 16 15 15 15 15 15 15 15 15 15 15 14 14 14 14 14 14 14 14 15 14 14 14 14 14 14 14 13 13 13 13 13 13
19 19 18 18 18 17 17 16 16 16 16 15 15 15 15 15 15 15 15 14 14 14 14 14 14 14 14 14 14 14 14 14 14 14 14 14 14 13 13 13 13 13 13
19 19 19 18 18 17 17 16 16 16 16 16 15 15 15 15 15 14 14 14 14 14 14 14 14 14 14 14 14 14 14 14 14 14 13 13 13 13 13 13 13 13 13
19 19 18 18 17 17 17 16 16 16 16 16 15 15 15 15 15 14 14 14 14 14 14 14 14 14 14 14 14 14 14 14 14 14 13 13 13 13 13 13 13 13 13
19 18 18 18 17 17 16 16 16 16 16 16 15 15 15 15 15 14 14 14 14 14 14 14 14 14 14 14 14 14 14 14 14 14 14 13 13 13 13 13 13 13 12
Wind_Speed
6 10 9 9 9 9 9 9 9 9 9 10 9 8 8 8 8 8 8 7 7 7 7 7 7 8 9 9 9 9 9 9 8 8 8 8 8 8 8 7 7 9 9
7 11 10 9 9 8 8 8 8 9 9 9 9 8 7 7 7 8 8 7 7 7 8 8 8 8 9 9 9 9 8 8 7 7 7 7 8 8 8 8 9 8 9
7 10 10 9 8 8 8 8 8 8 9 9 9 9 8 8 8 8 8 7 8 8 8 8 8 9 9 9 9 8 8 7 5 5 5 5 8 9 9 9 9 8 8
7 11 10 9 8 8 8 8 8 9 9 9 9 9 9 8 8 8 8 7 7 8 8 8 9 9 9 9 9 8 7 6 5 4 4 6 8 9 9 9 9 8 8
8 12 11 9 8 8 8 8 8 9 9 9 9 9 9 8 8 8 8 7 7 8 8 9 9 10 10 9 9 8 7 6 6 6 7 9 10 10 10 10 9 9 8
7 12 11 9 8 8 8 8 8 8 8 8 9 9 10 10 9 9 8 8 8 8 8 9 10 10 10 9 8 8 7 6 6 7 9 10 10 11 11 10 9 9 8
7 10 12 10 9 8 8 8 8 8 8 8 9 9 10 10 10 9 9 9 8 9 9 9 10 9 9 9 8 8 7 7 6 8 9 10 11 12 11 11 9 9 9
6 9 12 11 9 9 8 8 7 8 8 8 8 8 9 9 10 10 10 10 10 10 9 9 9 9 9 8 8 8 8 8 8 9 10 10 11 11 11 11 10 9 9
5 6 9 10 9 9 8 8 7 6 6 7 7 7 8 8 9 9 10 10 10 10 9 9 8 8 8 7 7 8 8 9 9 8 9 9 12 12 12 11 11 10 9
4 5 5 7 8 9 8 7 7 6 5 5 5 6 6 7 7 9 9 9 9 8 8 8 7 7 7 6 6 6 7 9 9 9 8 10 13 13 13 12 11 11 10
5 4 4 4 5 6 7 7 6 6 4 3 4 4 4 4 6 8 9 9 8 8 7 6 5 5 4 4 3 4 6 8 10 8 9 12 13 13 12 12 11 11 11
4 3 4 4 4 5 5 6 4 4 3 2 3 5 4 5 7 9 9 9 8 7 5 3 2 2 2 2 3 4 6 9 9 8 9 12 13 12 12 11 11 11 11
5 4 4 3 4 5 4 4 3 3 3 3 5 6 6 6 6 7 6 6 5 4 3 2 1 3 4 4 5 7 8 9 9 9 10 13 13 12 12 11 11 11 10
5 5 3 3 4 5 5 3 3 2 2 3 4 6 5 3 2 3 3 4 4 4 3 3 3 5 6 7 7 7 8 8 9 9 11 13 13 12 12 11 11 10 10
5 4 4 3 4 4 5 2 3 3 3 4 4 5 5 3 2 3 3 4 4 4 3 3 4 4 5 6 7 8 7 8 9 9 10 13 12 12 11 10 10 10 10
5 5 5 3 4 4 4 3 3 3 4 4 4 5 5 4 3 3 3 3 3 4 4 4 4 4 4 4 5 6 6 7 8 10 10 11 12 12 11 11 10 10 10
5 6 5 4 4 5 4 4 4 3 4 3 3 5 5 5 4 3 3 3 3 5 5 5 4 4 3 4 4 4 5 6 7 8 8 9 10 11 11 10 10 10 9
5 6 6 4 4 5 4 4 3 4 4 3 4 5 5 6 7 5 3 3 5 5 4 3 3 4 3 3 3 3 3 3 4 6 7 8 8 9 10 10 9 9 8
5 6 6 4 4 5 4 4 3 4 4 4 5 5 5 6 6 5 3 3 5 3 2 3 3 3 3 3 2 3 2 2 3 5 5 7 7 9 9 9 9 9 10
5 6 6 5 4 5 3 3 3 3 2 4 4 4 5 5 6 5 3 4 4 3 3 3 3 3 2 1 3 3 2 2 3 3 4 5 6 7 8 8 8 9 10
5 5 6 6 5 4 2 2 3 2 2 2 2 4 5 5 5 5 3 3 3 3 3 3 2 2 2 2 2 2 2 3 3 2 3 3 4 6 7 8 8 8 8
5 4 6 5 5 5 2 3 2 3 2 2 2 4 4 4 4 4 3 2 3 3 3 3 2 1 1 1 1 1 2 1 2 2 2 3 3 4 5 7 8 8 8
5 4 5 5 6 5 4 2 2 2 1 2 3 2 2 3 4 3 3 3 3 3 2 2 2 2 1 1 1 1 2 1 0 1 2 3 3 3 3 5 6 7 8
5 4 5 5 5 5 5 3 2 2 2 2 2 2 2 3 3 2 3 3 2 2 2 2 2 1 1 0 1 1 1 2 2 1 1 1 2 3 2 3 5 7 8
6 4 4 5 5 5 4 4 2 2 2 2 2 2 3 2 2 2 2 2 2 2 2 2 2 1 1 0 0 0 1 1 0 2 1 0 1 1 2 3 4 5 7
6 5 4 5 5 4 4 4 3 3 2 2 2 2 2 2 2 3 2 2 2 2 2 2 2 2 1 0 0 1 1 1 0 1 1 1 1 1 1 2 3 4 5
Wind_Direction
80 85 67 57 52 47 47 49 49 48 48 48 47 47 46 43 43 43 45 55 63 72 74 74 76 76 73 71 77 80 79 79 80 81 82 83 82 80 78 78 88 90 94
88 90 74 61 55 51 49 52 53 52 49 49 49 48 52 50 48 49 51 60 70 75 76 79 78 79 79 75 76 77 79 79 78 83 88 86 85 82 79 77 87 90 93
90 95 82 65 59 55 54 56 57 54 51 50 50 50 57 57 56 57 61 68 72 73 77 79 79 80 78 74 74 72 70 68 69 79 91 99 92 84 82 83 91 94 93
86 87 80 72 64 59 58 59 61 59 55 53 53 54 57 58 59 64 69 70 73 75 77 80 80 78 75 73 71 69 64 59 56 63 74 88 92 86 85 88 90 93 90
80 90 89 82 73 67 64 62 62 60 57 57 58 58 56 62 64 70 76 75 78 77 79 82 80 77 74 71 65 58 53 48 58 60 71 78 80 85 84 84 85 88 89
89 97 103 95 84 76 69 65 62 61 60 62 64 64 61 68 71 76 78 78 82 80 83 83 81 79 75 71 63 54 47 48 54 62 74 79 81 84 82 81 80 82 85
96 104 111 108 96 86 78 72 67 65 63 64 68 69 67 70 72 77 79 78 81 82 85 84 81 80 77 69 59 49 38 39 62 71 76 79 83 84 82 81 78 81 84
93 104 118 122 113 102 91 82 75 70 68 67 71 74 74 76 76 77 77 79 81 80 82 84 82 79 76 69 59 48 42 39 62 73 77 80 85 85 83 81 78 77 80
86 101 119 131 128 120 110 102 94 87 84 85 86 85 85 85 85 84 83 84 84 83 82 83 83 82 80 71 59 54 48 46 58 68 76 81 87 86 83 80 78 75 77
95 90 104 124 131 132 131 125 117 112 111 114 111 106 101 93 93 94 93 92 91 89 86 86 88 87 86 78 64 57 56 55 67 64 71 84 87 86 82 80 79 77 77
89 89 101 101 108 118 127 125 134 135 137 142 146 142 132 112 108 104 102 105 102 100 99 99 102 99 95 87 75 69 72 78 72 67 75 89 89 86 83 82 80 78 78
103 91 89 104 106 93 85 112 126 120 125 128 100 115 113 101 98 104 112 113 115 115 113 119 134 131 110 98 101 98 83 86 80 73 80 93 92 90 86 84 80 79 79
91 79 73 74 83 85 87 89 79 80 84 75 70 80 85 92 105 113 123 129 135 133 109 114 110 86 86 81 80 85 83 82 79 72 78 91 94 91 88 85 81 78 77
92 90 77 71 84 78 79 79 85 76 68 58 58 79 82 79 84 96 102 114 107 89 80 74 69 54 60 62 69 77 83 86 88 83 79 86 89 88 89 87 83 80 77
127 121 99 69 79 89 85 67 71 66 57 60 54 61 70 76 77 90 78 81 78 80 83 73 71 60 59 55 63 68 75 82 92 91 84 85 85 84 85 85 84 80 78
137 121 102 87 81 82 91 85 79 82 76 63 65 72 72 72 69 74 75 78 76 67 69 80 83 72 69 71 68 65 70 80 89 100 98 90 86 86 85 83 83 83 80
133 122 114 98 92 83 80 81 80 81 78 59 57 63 68 59 65 75 70 68 76 70 63 64 75 78 74 71 72 72 67 74 90 95 104 105 96 87 85 83 80 82 81
134 129 119 109 103 94 88 86 80 77 67 59 54 50 59 63 63 65 63 69 78 73 68 64 60 66 64 65 62 59 65 68 82 97 97 98 102 98 89 86 84 82 77
136 130 127 120 112 105 99 98 83 86 72 69 59 46 46 62 73 75 60 71 83 77 62 72 71 69 70 74 81 64 59 65 73 79 88 91 95 104 104 98 92 82 71
127 126 127 124 120 109 96 104 96 84 70 74 69 60 47 58 74 84 80 68 71 72 60 67 72 68 66 70 90 87 71 67 65 60 72 78 80 92 98 101 100 86 74
132 133 127 131 122 104 97 98 99 102 97 79 76 71 58 59 72 82 77 75 67 75 80 78 72 72 60 71 89 89 62 66 80 76 80 76 74 78 88 91 96 99 88
139 138 132 131 121 118 120 129 131 117 113 114 84 73 69 61 64 94 98 93 87 86 83 89 88 65 37 51 94 116 101 31 30 84 90 89 76 72 77 83 85 91 94
138 138 129 126 123 129 128 105 108 116 134 113 107 94 74 82 70 74 96 102 108 107 108 107 101 96 76 334 39 85 117 152 106 42 83 89 88 77 68 79 80 80 87
148 150 141 131 133 129 129 130 142 141 135 138 141 150 141 108 102 95 106 110 119 118 125 148 131 130 120 324 331 15 74 127 131 107 351 67 103 102 96 82 82 78 81
144 140 134 131 127 122 131 148 161 134 136 142 135 137 135 126 132 128 125 136 138 134 140 129 110 132 146 180 293 0 19 26 144 130 163 305 19 108 120 114 111 103 97
133 136 137 132 124 129 151 164 168 158 148 138 140 150 152 151 162 153 161 165 151 156 153 151 164 172 182 194 314 93 102 110 304 115 139 170 166 200 136 125 128 126 116
Height
1524 1521 1520 1519 1518 1518 1518 1517 1517 1517 1517 1516 1516 1516 1516 1516 1516 1516 1516 1517 1517 1518 1518 1519 1519 1520 1520 1521 1522 1523 1523 1525 1525 1526 1527 1528 1528 1529 1530 1530 1531 1531 1532
1524 1522 1521 1520 1519 1518 1518 1518 1518 1518 1518 1517 1517 1516 1516 1516 1516 1516 1516 1517 1518 1519 1519 1520 1520 1521 1522 1522 1523 1524 1525 1526 1527 1527 1528 1529 1529 1530 1530 1530 1531 1532 1533
1525 1523 1521 1520 1520 1519 1519 1519 1518 1518 1518 1518 1518 1517 1517 1516 1516 1516 1517 1518 1519 1520 1520 1521 1522 1522 1523 1524 1524 1525 1526 1527 1527 1528 1529 1529 1530 1530 1531 1531 1532 1532 1533
1526 1524 1522 1521 1521 1520 1520 1519 1519 1519 1519 1519 1518 1518 1517 1517 1516 1517 1518 1519 1520 1520 1521 1522 1523 1524 1524 1525 1525 1526 1527 1528 1528 1529 1530 1530 1531 1531 1531 1532 1532 1533 1534
1526 1524 1524 1522 1522 1521 1521 1520 1520 1520 1520 1519 1519 1519 1518 1517 1517 1518 1519 1520 1521 1522 1523 1524 1524 1525 1525 1526 1526 1527 1528 1529 1529 1530 1530 1531 1531 1532 1532 1532 1533 1533 1534
1527 1525 1524 1524 1523 1522 1522 1522 1521 1521 1521 1521 1520 1520 1519 1519 1519 1519 1520 1521 1522 1523 1524 1525 1525 1526 1526 1527 1528 1528 1529 1530 1530 1531 1531 1532 1532 1532 1532 1533 1533 1533 1534
1527 1526 1525 1525 1525 1524 1523 1523 1523 1523 1522 1522 1521 1521 1521 1521 1521 1521 1521 1522 1523 1524 1525 1526 1526 1527 1528 1528 1529 1529 1530 1531 1531 1532 1532 1532 1532 1533 1533 1533 1534 1534 1534
1528 1527 1527 1526 1526 1525 1525 1524 1524 1524 1524 1523 1523 1523 1523 1523 1523 1523 1524 1524 1525 1525 1526 1527 1528 1528 1529 1529 1530 1531 1531 1531 1532 1532 1533 1533 1533 1534 1534 1534 1534 1534 1535
1529 1528 1528 1527 1527 1527 1526 1526 1526 1526 1525 1525 1525 1525 1525 1525 1525 1525 1525 1526 1526 1527 1528 1528 1529 1530 1530 1531 1531 1532 1532 1533 1533 1533 1533 1534 1534 1534 1534 1535 1535 1535 1535
1530 1530 1529 1529 1528 1528 1528 1528 1527 1527 1527 1527 1527 1526 1527 1527 1527 1527 1527 1528 1528 1529 1529 1530 1531 1531 1532 1532 1533 1533 1533 1534 1534 1534 1534 1535 1535 1535 1535 1535 1535 1536 1536
1530 1530 1530 1530 1530 1530 1529 1529 1529 1529 1529 1529 1529 1528 1528 1528 1529 1529 1529 1529 1530 1530 1531 1531 1532 1533 1533 1534 1534 1534 1535 1535 1535 1535 1536 1536 1536 1536 1536 1536 1536 1536 1537
1531 1531 1531 1531 1531 1531 1531 1530 1530 1530 1530 1530 1530 1530 1530 1530 1531 1531 1531 1531 1532 1532 1532 1533 1534 1534 1534 1535 1535 1536 1536 1536 1536 1536 1537 1537 1537 1537 1537 1537 1537 1537 1537
1531 1532 1532 1532 1532 1532 1532 1532 1532 1532 1531 1532 1532 1532 1532 1532 1532 1532 1532 1533 1533 1533 1534 1535 1535 1535 1536 1536 1537 1537 1537 1537 1537 1537 1538 1538 1538 1538 1538 1538 1538 1538 1538
1532 1532 1532 1533 1532 1532 1532 1532 1532 1533 1532 1533 1533 1533 1533 1533 1533 1534 1534 1534 1534 1535 1535 1536 1536 1537 1537 1537 1538 1538 1538 1538 1538 1539 1539 1539 1539 1539 1539 1539 1539 1539 1539
1532 1532 1533 1533 1533 1533 1533 1533 1533 1533 1533 1533 1534 1534 1534 1534 1534 1535 1535 1535 1535 1536 1536 1537 1537 1537 1538 1538 1538 1538 1539 1539 1539 1540 1540 1540 1540 1540 1540 1540 1540 1540 1540
1531 1532 1533 1533 1533 1533 1533 1533 1534 1534 1534 1534 1534 1534 1534 1535 1535 1535 1535 1536 1536 1536 1537 1537 1538 1538 1538 1539 1539 1539 1540 1540 1540 1540 1541 1541 1541 1541 1541 1541 1541 1541 1540
1531 1532 1532 1533 1533 1533 1534 1534 1534 1534 1534 1535 1535 1535 1535 1535 1535 1536 1536 1536 1536 1537 1537 1538 1538 1539 1539 1539 1539 1540 1540 1541 1541 1541 1541 1541 1542 1542 1542 1542 1541 1541 1541
1531 1531 1532 1533 1533 1533 1534 1534 1534 1534 1534 1535 1535 1535 1535 1535 1535 1535 1536 1536 1537 1537 1538 1538 1538 1539 1539 1540 1540 1541 1541 1542 1542 1542 1542 1542 1542 1542 1542 1542 1542 1542 1542
1530 1531 1532 1533 1533 1533 1534 1534 1534 1535 1535 1535 1535 1535 1536 1536 1536 1536 1536 1537 1537 1537 1537 1538 1539 1539 1539 1540 1540 1541 1542 1542 1543 1543 1543 1543 1543 1543 1543 1543 1543 1542 1542
1529 1530 1531 1532 1533 1533 1534 1534 1534 1535 1535 1535 1535 1536 1536 1536 1536 1536 1536 1536 1537 1537 1537 1538 1539 1539 1539 1540 1540 1541 1542 1542 1543 1543 1544 1544 1544 1544 1543 1543 1543 1542 1542
1529 1530 1530 1531 1532 1532 1533 1534 1534 1534 1535 1535 1536 1536 1536 1536 1536 1536 1536 1536 1536 1537 1537 1538 1538 1539 1539 1539 1540 1541 1542 1543 1543 1544 1544 1544 1544 1544 1544 1544 1543 1543 1542
1528 1529 1530 1531 1531 1531 1532 1533 1533 1534 1534 1535 1536 1536 1536 1536 1536 1536 1536 1536 1536 1537 1537 1537 1538 1539 1539 1540 1540 1541 1542 1544 1544 1544 1544 1545 1545 1544 1544 1544 1544 1543 1542
1526 1528 1529 1530 1530 1531 1532 1532 1533 1534 1534 1535 1535 1535 1536 1536 1536 1536 1536 1536 1536 1537 1537 1537 1538 1538 1539 1540 1540 1541 1542 1542 1543 1544 1544 1545 1545 1544 1544 1544 1544 1543 1542
1525 1527 1528 1529 1529 1530 1531 1531 1532 1533 1533 1534 1534 1535 1535 1535 1536 1536 1536 1536 1536 1536 1537 1537 1538 1538 1539 1539 1540 1541 1542 1542 1543 1543 1545 1545 1545 1544 1544 1544 1543 1543 1542
1524 1525 1527 1528 1528 1529 1530 1531 1531 1532 1533 1533 1534 1534 1534 1535 1535 1535 1535 1536 1536 1536 1537 1537 1537 1538 1539 1539 1539 1540 1540 1541 1542 1542 1543 1544 1544 1544 1544 1544 1543 1542 1542
1522 1524 1525 1526 1527 1528 1528 1529 1530 1531 1532 1533 1533 1533 1534 1534 1534 1534 1535 1535 1535 1536 1536 1536 1537 1538 1538 1538 1539 1539 1540 1540 1540 1541 1542 1543 1543 1544 1544 1543 1543 1542 1542